Flag for Russia Weather past 2 weeks in Sochi, Russia

Now
63 °F

Mostly cloudy.


Feels Like: 63 °F
Forecast: 62 / 81 °F
Wind: 6 mph from Northeast

Location: Adler

Current Time: Sep 22, 2014 at 5:17:19 AM

Latest Report: Sep 22, 2014 at 4:30 AM


Visibility: N/A

Pressure: 29.89 "Hg

Humidity: 88%

Dew point: 59 °F

Location of SochiLocation

Historic Weather in Sochi — Graph

°F

Sochi temperature yesterday

Maximum temperature yesterday: 70 °F (at 12:00 PM)
Minimum temperature yesterday: 63 °F (at 12:00 AM)
Average temperature yesterday: 65 °F

Past Weeks' High & Low Weather Summary

 TemperatureHumidityPressure
High86 °F (Sep 7, 2:30 PM)94% (Sep 10, 1:00 AM)30.01 "Hg (Sep 10, 1:00 AM)
Low63 °F (Sep 14, 6:30 AM)48% (Sep 7, 10:30 AM)29.68 "Hg (Sep 7, 4:00 AM)
Average70 °F77%29.89 "Hg
* Reported Sep 7 4:00 AM — Sep 22 4:00 AM, Sochi, Weather by CustomWeather, © 2014

Note: Actual official high and low records may vary slightly from our data, if they occured in-between our weather recording intervals... More about our weather records

Advertising

Sochi weather history for previous 24 hours

 ConditionsComfort  
Time TempWeatherWind HumidityBarometerVisibility
4:00 AM
Sep 22
63 °FOvercast.6 mph88%29.89 "HgN/A
3:30 AM63 °FOvercast.3 mph88%29.92 "HgN/A
3:00 AM63 °FOvercast.6 mph88%29.92 "HgN/A
2:30 AM63 °FOvercast.8 mph88%29.92 "HgN/A
2:00 AM63 °FSprinkles. Overcast.6 mph88%29.92 "HgN/A
1:30 AM63 °FPassing clouds.6 mph94%29.92 "HgN/A
1:00 AM63 °FPassing clouds.8 mph94%29.92 "HgN/A
12:30 AM63 °FPassing clouds.10 mph94%29.92 "HgN/A
12:00 AM64 °FMostly cloudy.8 mph88%29.92 "HgN/A
11:30 PM
Sep 21
64 °FMostly cloudy.6 mph88%29.92 "HgN/A
11:00 PM64 °FSprinkles. Mostly cloudy.3 mph88%29.92 "Hg4 mi
10:30 PM64 °FPassing clouds.6 mph88%29.92 "HgN/A
10:00 PM64 °FPassing clouds.6 mph88%29.95 "HgN/A
9:30 PM64 °FPassing clouds.6 mph88%29.92 "HgN/A
9:00 PM64 °FPassing clouds.6 mph88%29.92 "HgN/A
8:30 PM64 °FPassing clouds.1 mph88%29.92 "HgN/A
8:00 PM64 °FPartly sunny.1 mph88%29.92 "HgN/A
7:30 PM66 °FPartly sunny.1 mph83%29.92 "HgN/A
7:00 PM66 °FPartly sunny.1 mph88%29.92 "HgN/A
6:30 PM66 °FPartly sunny.No wind83%29.92 "HgN/A
6:00 PM64 °FPartly sunny.No wind88%29.92 "HgN/A
5:30 PM64 °FSprinkles. Overcast.3 mph88%29.92 "HgN/A
5:00 PM68 °FSprinkles. More clouds than sun.1 mph78%29.92 "HgN/A
4:30 PM68 °FMore clouds than sun.3 mph73%29.92 "HgN/A
4:00 PM68 °FMostly cloudy.3 mph78%29.92 "HgN/A
3:30 PM68 °FMostly cloudy.3 mph78%29.92 "HgN/A
3:00 PM66 °FOvercast.1 mph88%29.92 "HgN/A
2:30 PM64 °FSprinkles. Overcast.3 mph88%29.92 "Hg1 mi
2:00 PM66 °FSprinkles. Overcast.3 mph83%29.92 "Hg1 mi
1:30 PM68 °FSprinkles. Mostly cloudy.6 mph83%29.92 "Hg6 mi
1:00 PM68 °FMostly cloudy.10 mph78%29.92 "HgN/A
12:30 PM70 °FMostly cloudy.8 mph73%29.92 "HgN/A
12:00 PM70 °FPartly sunny.8 mph73%29.92 "HgN/A
11:30 AM68 °FPartly sunny.6 mph78%29.92 "HgN/A
11:00 AM68 °FPartly sunny.3 mph83%29.92 "HgN/A
10:30 AM66 °FMostly cloudy.1 mph88%29.92 "HgN/A
10:00 AM66 °FSprinkles. Mostly cloudy.3 mph83%29.92 "Hg6 mi
9:30 AM66 °FBroken clouds.No wind83%29.92 "Hg6 mi
9:00 AM64 °FBroken clouds.3 mph88%29.89 "HgN/A
8:30 AM64 °FBroken clouds.3 mph88%29.89 "HgN/A
8:00 AM64 °FPartly cloudy.6 mph88%29.89 "HgN/A
7:30 AM63 °FMostly cloudy.3 mph94%29.89 "HgN/A
7:00 AM63 °FSprinkles. Mostly cloudy.3 mph94%29.89 "HgN/A
6:30 AM63 °FSprinkles. Mostly cloudy.3 mph94%29.89 "HgN/A
6:00 AM64 °FPassing clouds.3 mph88%29.89 "HgN/A
5:30 AM63 °FPassing clouds.6 mph94%29.89 "HgN/A
5:00 AM63 °FPassing clouds.3 mph94%29.89 "HgN/A
Weather by CustomWeather, © 2014

See weather overviewHow to use our weather pages